Wind_Speed
129 130 142 154 155 155 157 155 158 153 151 132 129 118 113 113 111 109 105 102 100 101 100 98 98 97 94 92 90 89 86 84 81 80 80 78 77 77 77 76 75 74 74 73
124 129 133 138 150 155 154 155 155 153 153 141 133 133 124 117 118 115 110 109 107 106 105 103 102 102 102 98 97 96 93 91 88 87 87 85 84 85 81 80 79 78 77 77
115 124 128 132 135 146 154 155 157 158 154 148 142 141 137 130 123 120 121 117 115 113 110 109 107 107 105 104 103 101 100 100 97 95 92 91 91 90 85 83 83 83 84 87
104 117 122 118 129 135 140 146 159 158 155 152 147 145 143 140 135 127 122 119 120 124 116 114 113 112 111 109 108 105 103 101 100 98 96 92 92 91 89 88 89 89 91 92
103 110 113 119 121 124 134 133 142 154 154 153 148 142 135 136 140 136 130 123 119 122 119 117 117 115 114 113 112 111 108 106 105 102 99 97 94 92 93 94 96 99 102 105
97 103 106 102 115 122 129 132 136 140 142 147 145 135 136 141 141 137 139 132 125 124 123 118 116 119 117 116 114 113 112 111 109 105 103 100 98 96 97 101 106 110 109 107
91 99 97 91 103 115 129 120 126 134 135 136 136 135 140 144 139 136 134 135 135 131 131 127 123 123 120 119 114 113 115 113 111 110 109 105 103 104 105 109 111 110 112 114
86 93 94 80 99 112 112 114 119 130 132 134 134 131 135 138 136 138 136 135 135 134 134 130 130 129 127 121 116 118 115 114 114 114 110 107 109 111 115 117 119 119 119 119
86 85 81 80 95 102 106 106 109 123 127 131 131 129 131 129 133 133 133 135 134 134 132 133 136 136 132 127 124 122 121 119 119 118 116 115 118 121 122 124 123 120 117 113
83 73 73 71 88 96 100 100 99 114 118 122 125 125 128 127 125 126 131 132 132 135 134 132 133 135 134 135 132 129 127 126 124 123 120 117 119 121 121 120 121 121 120 120
62 58 72 69 76 90 93 93 91 101 105 110 113 115 121 125 123 121 123 127 131 130 130 131 134 136 138 135 135 134 132 132 127 126 127 125 125 126 128 130 130 131 132 132
50 63 67 64 67 82 86 87 89 93 96 104 109 105 104 111 118 118 119 119 121 125 127 127 129 132 133 133 133 134 135 135 134 133 132 133 134 134 135 134 135 134 133 134
54 61 58 56 64 73 80 83 83 83 88 93 95 96 94 100 106 108 111 109 113 118 123 125 125 124 127 128 129 130 131 131 132 133 132 132 135 136 135 138 135 135 134 136
48 50 47 52 57 64 71 70 71 70 72 77 79 83 79 80 86 95 98 103 104 104 112 114 116 123 126 124 124 126 126 126 127 130 131 132 131 131 132 137 137 134 133 132
41 41 43 47 47 56 61 60 58 56 60 67 74 75 74 71 74 80 84 90 95 92 94 94 104 112 117 118 122 122 123 123 124 126 126 126 127 130 131 132 130 125 128 130
37 37 39 39 43 49 49 51 51 50 52 56 60 64 68 69 70 64 63 74 84 90 90 88 90 91 96 103 109 113 118 122 124 125 126 127 129 128 127 126 126 125 126 126
35 35 33 34 39 42 39 40 42 44 43 46 52 56 61 66 65 60 64 69 69 73 80 82 78 84 87 89 91 98 105 110 112 114 119 118 119 123 117 120 120 120 122 123
30 30 32 31 30 32 32 35 37 37 39 42 46 51 56 54 53 57 58 55 55 59 61 66 74 78 82 82 86 92 95 99 107 107 109 113 110 113 113 110 109 108 106 105
25 27 27 27 29 31 30 33 32 33 34 39 41 40 43 44 43 46 44 42 46 46 47 53 57 66 73 79 85 88 87 87 91 91 97 99 96 95 95 96 93 90 90 98
27 29 31 32 34 36 36 33 34 32 33 35 38 37 26 28 31 37 45 40 33 41 35 41 59 62 72 77 75 76 78 80 84 87 86 85 85 87 85 84 83 85 94 95
30 30 31 35 35 39 38 40 39 39 38 32 28 26 21 28 33 36 39 50 61 58 58 63 70 75 75 74 77 75 74 72 72 77 81 85 82 83 83 80 82 86 83 85
33 29 30 39 37 41 44 47 44 43 44 45 44 37 31 29 32 46 56 57 59 64 71 76 79 75 75 71 69 73 78 77 75 77 81 85 89 88 85 83 84 84 87 90
31 32 33 39 39 36 47 49 52 49 54 52 54 52 53 55 50 52 60 60 59 61 68 72 72 70 67 65 66 72 73 76 79 81 85 88 92 87 85 86 89 91 94 95
31 33 36 39 41 38 41 52 55 58 61 59 57 57 58 63 63 62 60 60 66 70 72 72 70 69 72 76 82 82 83 82 87 87 89 90 89 91 95 96 96 97 94 94
31 31 33 37 41 44 39 49 46 47 57 68 63 66 67 67 72 72 73 69 70 74 77 77 80 80 81 81 84 88 89 88 86 86 91 93 96 98 96 97 96 93 93 90
33 34 33 36 37 43 44 50 51 48 46 60 73 70 72 72 73 77 78 80 80 81 84 85 85 87 90 90 91 89 89 92 95 97 98 100 100 98 95 97 90 83 82 82
34 35 35 36 36 38 41 47 55 58 55 53 51 60 76 78 78 79 80 80 80 81 82 82 83 86 88 90 93 96 97 98 97 98 99 94 91 89 85 83 83 78 76 73
Wind_Direction
232 231 232 234 235 236 237 238 240 240 240 233 234 233 234 240 243 246 248 249 251 253 252 251 252 254 258 260 262 263 264 265 265 267 268 271 273 274 276 278 279 280 281 282
233 232 232 234 235 236 238 239 240 241 242 238 235 236 236 235 239 243 244 247 249 251 252 252 253 255 256 259 260 262 264 265 266 267 270 273 275 276 278 278 279 280 280 283
235 235 234 234 236 237 237 238 239 241 242 240 236 235 236 237 237 241 246 246 247 248 249 251 253 254 256 258 260 262 263 265 267 269 271 274 275 277 278 278 277 279 283 288
234 234 236 235 237 239 240 239 240 241 241 241 239 238 236 237 238 239 241 243 246 251 249 250 252 254 256 260 263 264 264 266 269 272 273 275 275 275 276 277 279 282 285 288
234 235 233 234 236 238 240 241 241 243 242 244 243 240 241 240 240 240 241 241 242 247 250 250 252 253 255 258 259 260 262 265 267 269 270 270 271 274 275 277 279 281 283 286
241 239 236 232 236 238 239 238 241 243 243 243 243 244 241 242 241 240 239 241 242 246 249 250 252 254 256 258 260 262 264 266 266 268 269 270 272 274 274 275 277 280 283 284
240 243 242 234 236 237 239 239 239 243 244 243 244 242 241 241 243 243 242 241 242 244 248 251 251 252 254 255 258 261 262 266 267 268 269 272 271 272 273 275 278 279 280 283
243 241 240 237 238 239 240 239 238 242 243 244 245 243 241 242 242 243 243 243 242 243 246 248 250 253 254 255 256 258 261 262 263 265 267 269 269 271 272 274 276 278 279 281
243 243 242 235 242 242 241 240 237 240 242 244 245 246 245 242 240 241 242 243 243 244 245 247 249 251 253 255 256 258 260 261 263 265 267 268 270 273 275 276 278 280 280 280
249 249 248 238 243 247 249 246 239 242 242 243 244 244 245 245 242 241 242 242 242 244 244 244 247 250 252 254 255 257 260 261 263 265 267 268 268 270 272 273 274 276 276 278
250 251 249 243 241 245 247 249 247 247 247 247 246 244 245 247 246 243 242 242 242 243 243 244 246 248 251 252 254 257 259 261 263 264 265 267 268 269 270 273 275 277 279 281
249 245 244 243 240 245 246 246 247 246 245 245 247 247 244 245 247 247 245 243 243 244 245 244 245 247 249 252 255 256 258 260 262 264 266 267 269 270 272 274 276 279 281 281
246 246 246 243 243 246 246 248 249 247 247 248 248 248 247 246 247 248 249 246 242 243 245 245 246 247 249 252 253 255 258 260 261 263 265 266 267 270 273 274 277 279 280 280
251 251 251 246 244 247 253 252 252 255 255 256 255 254 251 249 247 247 247 249 249 244 243 243 245 246 248 250 252 253 255 257 258 260 261 264 267 269 270 273 275 278 279 280
249 246 246 246 244 248 252 255 256 251 247 249 252 254 253 249 247 245 246 246 247 245 244 241 240 242 245 249 251 252 254 256 258 259 261 263 265 266 267 269 272 276 276 278
247 244 243 245 247 248 248 252 255 252 246 243 243 243 247 248 246 243 244 244 244 246 246 243 245 242 242 244 247 249 251 253 256 258 260 262 264 266 268 269 271 272 275 276
244 240 239 236 240 249 251 246 248 249 246 244 244 241 239 239 239 236 234 237 237 238 240 242 246 249 250 249 248 249 250 252 254 257 260 262 263 265 268 268 271 273 273 275
239 234 235 233 234 241 245 247 245 240 238 237 238 240 241 239 238 235 237 238 236 236 237 236 239 244 248 252 255 254 255 256 256 258 261 263 265 267 270 271 272 274 276 277
231 227 226 227 226 231 229 240 242 235 232 227 232 235 239 237 231 228 227 229 227 221 226 233 234 238 243 244 249 254 255 256 259 263 263 265 268 271 273 275 278 277 275 277
233 226 219 221 215 219 218 218 216 224 215 219 223 220 217 220 215 210 213 207 206 199 212 230 242 247 251 243 243 250 252 253 256 258 262 265 267 271 272 274 273 273 274 276
234 230 223 228 223 221 211 208 215 203 200 198 196 206 218 212 199 186 176 184 203 201 201 216 229 241 245 249 242 246 252 254 252 253 260 262 264 270 273 270 271 274 277 277
235 237 231 232 227 222 214 214 208 215 202 183 180 187 196 204 192 183 189 201 214 215 212 217 228 237 238 246 249 252 255 258 258 261 262 265 269 274 277 279 282 283 285 286
237 238 237 233 236 229 219 220 216 210 203 197 194 197 202 205 207 206 211 215 218 220 225 232 247 249 247 252 260 260 263 261 259 267 266 268 268 276 283 285 285 287 289 289
242 237 238 237 238 237 231 223 223 218 209 202 202 203 203 211 219 223 225 225 224 228 234 240 245 248 247 250 257 260 263 264 267 269 271 275 280 281 281 283 285 285 287 290
245 243 236 236 237 243 240 229 232 236 227 212 208 209 210 213 216 221 227 231 229 231 235 236 240 244 247 252 261 265 268 269 271 274 276 279 279 279 280 282 282 286 289 290
246 245 242 239 240 237 239 238 240 247 245 234 223 218 218 220 222 225 226 230 233 238 241 245 248 253 253 256 262 266 268 269 272 275 278 279 280 281 283 285 286 285 285 287
246 245 244 248 245 242 242 243 246 250 251 252 251 244 236 231 232 234 236 240 245 247 251 253 255 257 259 262 267 270 272 274 276 275 278 281 283 282 282 283 283 284 284 286
Height
10368 10387 10382 10397 10411 10425 10429 10453 10450 10482 10494 10568 10572 10585 10595 10601 10607 10613 10628 10638 10645 10645 10650 10657 10660 10659 10660 10664 10669 10672 10675 10680 10684 10684 10684 10688 10689 10689 10690 10691 10690 10689 10689 10687
10340 10352 10362 10371 10385 10395 10411 10426 10434 10450 10467 10521 10553 10559 10572 10581 10584 10595 10609 10615 10619 10624 10629 10636 10641 10640 10640 10645 10649 10652 10659 10660 10664 10667 10667 10671 10671 10670 10672 10673 10672 10670 10669 10669
10323 10327 10341 10354 10366 10367 10382 10397 10403 10411 10437 10465 10507 10526 10538 10555 10565 10573 10583 10590 10591 10598 10604 10611 10619 10618 10621 10624 10629 10636 10641 10641 10645 10649 10651 10652 10650 10650 10651 10652 10651 10651 10650 10649
10297 10295 10308 10354 10344 10351 10356 10376 10375 10389 10405 10430 10461 10484 10509 10526 10538 10552 10559 10565 10565 10567 10582 10585 10590 10596 10600 10605 10609 10615 10620 10622 10625 10629 10631 10633 10630 10630 10631 10630 10628 10628 10629 10629
10259 10268 10294 10308 10323 10334 10333 10354 10354 10355 10382 10401 10430 10463 10496 10507 10515 10528 10534 10542 10544 10543 10554 10562 10566 10575 10580 10584 10587 10591 10599 10603 10603 10608 10611 10610 10610 10613 10613 10612 10608 10607 10607 10607
10240 10246 10265 10308 10301 10304 10301 10315 10322 10331 10355 10373 10401 10433 10464 10460 10468 10491 10509 10522 10527 10526 10531 10540 10548 10546 10554 10561 10567 10571 10577 10579 10580 10585 10585 10588 10592 10593 10593 10589 10586 10583 10582 10582
10216 10218 10244 10284 10280 10276 10256 10308 10315 10307 10319 10336 10361 10394 10416 10420 10446 10466 10482 10497 10504 10505 10504 10515 10522 10521 10527 10533 10545 10552 10547 10556 10558 10559 10562 10569 10571 10570 10570 10565 10559 10556 10557 10557
10195 10198 10215 10262 10242 10235 10259 10282 10296 10282 10294 10304 10321 10350 10366 10389 10414 10428 10446 10463 10473 10482 10488 10493 10490 10491 10501 10513 10526 10522 10530 10532 10532 10534 10541 10547 10544 10541 10538 10538 10535 10532 10532 10530
10162 10179 10207 10234 10219 10219 10227 10247 10266 10255 10265 10270 10291 10314 10327 10359 10379 10394 10414 10427 10441 10451 10464 10467 10467 10467 10475 10488 10491 10499 10503 10506 10509 10512 10519 10525 10521 10516 10508 10504 10505 10505 10506 10505
10149 10179 10190 10214 10200 10200 10203 10216 10241 10224 10237 10247 10262 10284 10294 10314 10340 10360 10376 10393 10406 10411 10430 10445 10440 10442 10451 10457 10463 10469 10474 10479 10482 10485 10491 10495 10490 10486 10482 10479 10476 10476 10476 10478
10148 10170 10156 10178 10186 10174 10182 10193 10209 10210 10216 10225 10235 10258 10272 10280 10299 10324 10344 10358 10366 10384 10403 10413 10415 10417 10421 10434 10438 10444 10450 10450 10458 10460 10462 10466 10462 10457 10453 10451 10451 10446 10445 10444
10141 10130 10135 10154 10162 10152 10154 10166 10178 10183 10190 10198 10202 10219 10246 10256 10267 10282 10306 10327 10340 10354 10366 10381 10389 10392 10399 10406 10413 10419 10423 10428 10431 10433 10436 10435 10429 10428 10424 10426 10425 10421 10417 10414
10114 10110 10123 10139 10141 10135 10132 10142 10155 10163 10170 10174 10184 10198 10220 10234 10243 10253 10267 10288 10311 10321 10333 10349 10362 10370 10374 10384 10390 10390 10396 10401 10406 10407 10409 10404 10400 10400 10400 10394 10397 10395 10390 10382
10100 10107 10114 10118 10123 10122 10117 10128 10140 10152 10161 10161 10168 10174 10193 10206 10218 10227 10243 10252 10267 10288 10301 10319 10335 10342 10348 10354 10361 10366 10371 10374 10376 10374 10376 10378 10380 10380 10377 10367 10368 10368 10362 10356
10090 10098 10100 10104 10112 10107 10107 10114 10122 10134 10140 10142 10143 10149 10159 10179 10192 10202 10212 10223 10232 10249 10268 10287 10301 10309 10318 10328 10333 10338 10340 10345 10346 10345 10347 10350 10349 10348 10347 10345 10341 10340 10336 10332
10081 10085 10088 10094 10095 10093 10100 10102 10107 10111 10118 10122 10128 10136 10141 10152 10162 10178 10194 10203 10209 10221 10234 10250 10265 10283 10296 10299 10302 10310 10314 10314 10315 10319 10319 10320 10318 10319 10319 10318 10318 10315 10311 10305
10072 10076 10079 10084 10085 10082 10088 10093 10096 10099 10107 10112 10115 10119 10123 10128 10140 10159 10167 10173 10189 10203 10214 10230 10246 10254 10261 10270 10278 10280 10282 10280 10288 10290 10287 10290 10289 10285 10295 10288 10288 10287 10283 10278
10064 10066 10068 10072 10076 10075 10076 10079 10084 10091 10097 10100 10103 10105 10108 10119 10133 10141 10151 10161 10171 10183 10196 10210 10219 10229 10236 10245 10247 10250 10254 10257 10256 10261 10261 10260 10264 10261 10261 10261 10259 10259 10255 10248
10055 10057 10059 10064 10066 10069 10070 10072 10076 10082 10089 10092 10096 10099 10102 10110 10122 10130 10141 10151 10160 10169 10183 10192 10202 10209 10213 10218 10222 10225 10228 10233 10234 10235 10233 10235 10237 10236 10234 10233 10233 10231 10224 10220
10048 10049 10053 10056 10060 10063 10065 10069 10072 10077 10082 10086 10090 10096 10100 10105 10112 10120 10129 10136 10144 10160 10169 10175 10182 10190 10196 10197 10199 10202 10206 10210 10213 10214 10215 10214 10215 10215 10213 10209 10207 10205 10202 10196
10041 10044 10046 10049 10054 10058 10063 10065 10067 10071 10074 10081 10086 10091 10097 10101 10106 10112 10121 10132 10140 10149 10158 10167 10171 10174 10179 10181 10181 10183 10186 10190 10193 10196 10197 10197 10195 10192 10189 10187 10185 10180 10175 10173
10036 10038 10040 10042 10047 10052 10057 10060 10063 10067 10070 10075 10080 10088 10094 10099 10107 10112 10119 10127 10130 10136 10142 10146 10153 10156 10158 10163 10165 10168 10169 10169 10169 10169 10168 10168 10168 10166 10164 10161 10158 10154 10150 10146
10029 10032 10035 10037 10040 10046 10052 10054 10058 10062 10066 10067 10072 10078 10085 10090 10098 10105 10110 10114 10118 10122 10126 10130 10134 10137 10139 10141 10142 10144 10146 10147 10148 10150 10149 10146 10145 10142 10139 10136 10133 10129 10125 10120
10021 10024 10028 10031 10033 10038 10044 10047 10051 10056 10060 10062 10066 10068 10073 10079 10084 10088 10094 10099 10103 10106 10109 10111 10114 10117 10120 10122 10124 10124 10125 10128 10129 10128 10126 10124 10121 10118 10116 10112 10109 10105 10099 10094
10011 10014 10018 10022 10025 10029 10035 10039 10042 10048 10052 10053 10055 10061 10065 10070 10073 10075 10079 10082 10087 10090 10093 10095 10097 10098 10100 10101 10102 10103 10107 10107 10105 10103 10102 10099 10097 10094 10092 10088 10082 10078 10073 10067
10001 10003 10006 10010 10014 10018 10024 10028 10032 10035 10039 10043 10045 10047 10051 10054 10058 10063 10066 10070 10072 10074 10076 10079 10081 10081 10083 10085 10087 10086 10084 10082 10080 10078 10076 10075 10073 10070 10064 10060 10056 10050 10045 10039
9989 9993 9995 9997 10001 10005 10009 10015 10020 10023 10027 10031 10034 10037 10039 10038 10041 10044 10047 10050 10053 10054 10056 10059 10061 10062 10061 10061 10063 10063 10062 10060 10057 10054 10053 10049 10046 10043 10038 10033 10029 10025 10021 10015